Location: Leo
(52.0556°N, 112.3605°W)
Time: 08:47:00
(UTC+00:00)

FO-29 - Pass Details

Date: 04 December 2023
Orbit: 799 x 1322 km, 98.6° (Epoch: 01 March)

Event Time Altitude Azimuth Distance (km) Brightness Sun altitude
Rises 11:51:06 0° 12° (NNE) 4,072 12.9 -30.8°
Reaches altitude 10° 11:53:45 10° 7° (N) 3,168 12.2 -30.4°
Enters shadow 11:58:24 36° 337° (NNW) 1,900 10.8 -29.7°
